Location: Duffs
(47.4500°N, 53.1167°W)
Time: 10:21:33
(UTC+00:00)

ISS - Pass Details

Date: 01 June 2022
Orbit: 414 x 420 km, 51.6° (Epoch: 01 July)

Event Time Altitude Azimuth Distance (km) Brightness Sun altitude
Rises 00:17:30 0° 287° (WNW) 2,370 1.3 -8.1°
Reaches altitude 10° 00:20:02 10° 268° (W) 1,500 -0.3 -8.4°
Maximum altitude 00:22:25 18° 223° (SW) 1,095 -1.7 -8.7°
Drops below altitude 10° 00:24:47 10° 177° (S) 1,489 -1.4 -9.0°
Enters shadow 00:25:11 - 173° (S) 1,611 -1.3 -9.0°
